weather.gov     
National Weather Service

Terminal Aerodrome Forecast
NWS Homepage
This page is being discontinued on March 12, 2014.
The same data is available at this site. Please update your bookmarks.
Thank you, and we apologize for the inconvenience.
Please send an email to SR-SRH.Webmaster@noaa.gov with any concerns.


Current Version
Previous Version:    01  02  03  04  05  06  07  08  09  10  11  12  13  14  15  16  17  18  19  20  21  22  23  24  25  
[Printable]
254
FTUS41 KILN 302300
TAFCMH
TAF
KCMH 302340Z 3100/3124 22010KT P6SM SCT060 BKN200
     FM310100 21007KT P6SM -SHRA SCT050 OVC120
     FM310700 18007KT 3SM -SHRA BR SCT012 BKN050
     FM311100 20006KT 3SM -SHRA BR OVC012
     FM311500 20009KT 5SM BR OVC015
     FM311800 20010KT P6SM BKN028=


U.S. Dept. of Commerce
NOAA National Weather Service
1325 East West Highway
Silver Spring, MD 20910
E-mail: w-nws.webmaster@noaa.gov
Page last modified: May 16, 2007
NATIONAL WEATHER SERVICE: for Safety, for Work, for Fun - FOR LIFE